Location: Unspecified
(45.7810°N, 0.0000°E)
Time: 00:51:18
(UTC+00:00)

ISS - Pass Details

Date: 28 July 2019
Orbit: 410 x 421 km, 51.6° (Epoch: 24 August)

Event Time Altitude Azimuth Distance (km) Brightness Sun altitude
Rises 20:37:27 0° 294° (WNW) 2,375 1.7 -9.9°
Reaches altitude 10° 20:39:41 10° 304° (NW) 1,508 0.7 -10.2°
Maximum altitude 20:42:47 32° 10° (N) 740 -2.2 -10.6°
Drops below altitude 10° 20:45:52 10° 76° (ENE) 1,500 -1.3 -11.0°
Enters shadow 20:46:32 - 81° (E) 1,750 -1.0 -11.1°
